Regional Weather Roundup
Issued by NWS

Home | Current Version | Previous Version | Graphics & Text | Print | Product List | Glossary On
Versions: 1 2 3 4 5 6 7 8 9 10 11 12 13 14 15 16 17 18 19 20 21 22 23 24 25 26 27 28 29 30 31 32 33 34 35 36 37 38 39 40 41 42 43 44 45 46 47 48 49 50
000
ASUS45 KTFX 231019
RWRMT
MONTANA HOURLY WEATHER ROUNDUP
NATIONAL WEATHER SERVICE GREAT FALLS MT
419 AM MDT THU OCT 23 2014

NOTE: "FAIR" INDICATES FEW OR NO CLOUDS BELOW 12000 FEET WITH NO
SIGNIFICANT WEATHER AND/OR OBSTRUCTIONS TO VISIBILITY.

* THESE STATIONS ARE NOT UNDER NWS QUALITY CONTROL. THEY DO NOT
   REPORT WEATHER SUCH AS PRECIPITATION OR FOG.

MTZ001>007-043-231100-
WEST OF THE DIVIDE
CITY           SKY/WX    TMP DP  RH WIND       PRES   REMARKS
KALISPELL      CLOUDY    48  43  83 CALM      29.82F
MISSOULA       CLOUDY    52  39  61 CALM      29.90S
BUTTE          CLOUDY    43  28  56 CALM      30.00F
MULLAN PASS    LGT RAIN  37  37 100 S10G24    29.88S VSB 2    WCI  30
* ESSEX        N/A       49  42  77 SE3        N/A
* LINCOLN      N/A       47  30  52 W6G11      N/A
* LOOKOUT PASS N/A       43  41  93 S4G10      N/A
* POLSON       N/A       50  40  69 S3G11      N/A
* RONAN APT    CLOUDY    55  37  51 SE6        N/A
* SEELEY LAKE  N/A       40  37  89 N2G7       N/A
* THOMP F APT  CLOUDY    39  24  55 E5G10      N/A   WCI  35
$$

MTZ008-052>055-231100-
SOUTHWEST MONTANA
CITY           SKY/WX    TMP DP  RH WIND       PRES   REMARKS
BOZEMAN        CLOUDY    37  32  82 E3        29.98F
DILLON         CLOUDY    43  28  56 N5        30.01F
W YELLOWSTONE  CLOUDY    28  27  96 S5        30.15F WCI  22
* THREE FORKS  CLOUDY    52  34  50 W6         N/A
* BOULDER HILL N/A       44  25  47 SW14G19    N/A
* MONIDA PASS  N/A       36  26  67 SE17G22    N/A   WCI  26
* RAYNOLDS PAS N/A       38  23  55 S15G21     N/A   WCI  29
* WHITEHALL    N/A       48  29  48 SE5G21     N/A
* WISE RIVER   N/A       35  31  85 SW2        N/A
$$

MTZ009>010-012-014-046-048-049-054-231100-
EAST SLOPES AND CENTRAL MONTANA
CITY           SKY/WX    TMP DP  RH WIND       PRES   REMARKS
CUT BANK       CLOUDY    52  34  50 SW9       29.76S
GREAT FALLS    CLOUDY    50  32  50 S14       29.81S
HELENA         CLOUDY    55  28  35 S14G28    29.89F
MALMSTROM AFB  CLOUDY    52  32  47 SW18G23   29.83S
* CONRAD       CLOUDY    52  39  61 S14G20     N/A
* DEARBORN     N/A       57  30  36 S11G20     N/A
* EAST GLACIER N/A       49  34  56 W13G34     N/A
* MONARCH      N/A       47  18  31 SW23G30    N/A
* PENDROY      N/A       49  35  59 SW8G16     N/A
* ROGERS PASS  N/A       46  29  52 SE10G24    N/A
* SAINT MARY   N/A       50  34  54 SW12G33    N/A
* SWEET GRASS  N/A       54  34  47 SW27G35    N/A
* WHITE SULPH  N/A       47  26  44 SW11G19    N/A
$$

MTZ011-013-016-021-035-040-045-047-050-051-231100-
NORTH CENTRAL MONTANA
CITY           SKY/WX    TMP DP  RH WIND       PRES   REMARKS
HAVRE          CLOUDY    57  34  42 SW24G31   29.73F
LEWISTOWN      PTCLDY    54  27  35 SW18      29.87S
* CHINOOK      MOCLDY    39  34  82 E6        29.76S WCI  35
* FORT BENTON  CLOUDY    55  30  39 S15G23    29.79S
* CHESTER      N/A       43  34  71 SW2        N/A
* DENTON       N/A       49  30  48 SW11G17    N/A
* GEYSER       N/A       52  26  36 SW12       N/A
* JUDITH GAP   N/A       44  27  51 SE7        N/A
* LOMA         N/A       56  32  40 S14G23     N/A
$$

MTZ017>020-022>027-061-062-231100-
NORTHEAST MONTANA
CITY           SKY/WX    TMP DP  RH WIND       PRES   REMARKS
GLASGOW        CLEAR     37  34  89 SE12      29.80F WCI  29
GLENDIVE       CLEAR     32  27  82 S8        29.89F WCI  25
JORDAN         CLEAR     28  23  81 CALM      29.84F
SIDNEY         CLEAR     36  30  79 S8        29.88S WCI  30
WOLF POINT     CLEAR     30  27  89 CALM      29.84F
* BEAVER HILL  N/A       41  27  58 S5G12      N/A
* CIRCLE       N/A       41  30  65 W1         N/A
* LINDSAY DVD  N/A       43  29  58 SW8        N/A
* NAVAJO       N/A       43  32  65 SW12       N/A
$$

MTZ028>042-056>058-231100-
SOUTHCENTRAL AND SOUTHEAST MONTANA
CITY           SKY/WX    TMP DP  RH WIND       PRES   REMARKS
BAKER          CLEAR     43  28  56 W9        29.91F
BILLINGS       CLOUDY    46  23  40 S9        29.91F
LIVINGSTON     CLOUDY    54  25  33 SW17G26   29.95R
MILES CITY     CLEAR     37  27  67 SE9       29.91S WCI  30
* LAUREL APT   CLOUDY    48  21  34 W5         N/A
* ROUNDUP APT  PTCLDY    45  23  42 S7         N/A
* ALZADA       N/A       38  26  62 N/A        N/A
* HYSHAM       N/A       48  23  37 W5         N/A
* LAME DEER    N/A       46  23  40 S6         N/A
* REED POINT   N/A       32  28  85 N/A        N/A
* ROSCOE HILL  N/A       53  18  25 S17G29     N/A
$$

REGIONAL REPORTS...DAKOTAS
CITY           SKY/WX    TMP DP  RH WIND       PRES   REMARKS
WILLISTON      CLEAR     36  30  79 S3        29.85F
DICKINSON      CLEAR     43  27  53 S5        29.88F
BEACH          N/A       32  28  85 S3        29.90F
CROSBY         N/A       37  36  96 S12       29.82F WCI  29
TIOGA          CLEAR     37  37 100 CALM      29.87F
BISMARCK       CLEAR     36  32  85 CALM      29.92S
GRAND FORKS    CLOUDY    52  46  80 SW7       29.83S
FARGO          CLEAR     45  43  93 S8        29.89S
BUFFALO SD     CLEAR     39  28  65 W8        29.88F WCI  33
RAPID CITY     CLEAR     36  27  70 CALM      29.98F
$$

REGIONAL REPORTS...WYOMING/IDAHO/WASHINGTON
CITY           SKY/WX    TMP DP  RH WIND       PRES   REMARKS
GILLETTE       PTCLDY    41  19  41 S7        29.99F
SHERIDAN       PTCLDY    34  21  59 CALM      29.95F
CODY           CLOUDY    48  21  34 S9        30.02S
YELLOWSTONE LA CLOUDY    28  25  89 NW3       30.21S
SALMON         CLOUDY   N/A N/A N/A N/A        N/A
MULLAN PASS    LGT RAIN  37  37 100 S10G24    29.88S VSB 2    WCI  30
SAND POINT     RAIN      48  48 100 SW3       29.79R
SPOKANE        MOCLDY    52  46  80 S8        29.77S
$$

REGIONAL REPORTS...ALBERTA
CITY           SKY/WX    TMP DP  RH WIND       PRES   REMARKS
CALGARY        MOCLDY    48  36  63 S6        29.53F
LETHBRIDGE     MOCLDY    54  37  53 S18G24    29.66S
MEDICINE HAT   CLEAR     52  37  57 SW14      29.65F
EDMONTON       CLOUDY    36  30  79 S7        29.48F WCI  30
WATERTON GATE  N/A       45  39  80 SW32G51    N/A
CARDSTON       N/A       52  37  57 SW20G29    N/A
MILK RIVER     N/A       54  36  51 SW16G25    N/A
$$

REGIONAL REPORTS...SASKATCHEWAN
CITY           SKY/WX    TMP DP  RH WIND       PRES   REMARKS
SWIFT CURRENT  CLEAR     41  36  82 S14       29.70F
MOOSE JAW      FAIR      41  36  82 CALM      29.74F
REGINA         N/A       34  32  92 E6        29.76F WCI  29
VAL MARIE      N/A       34  32  92 SW6        N/A   WCI  29
ASSINIBOIA     N/A       43  34  71 SW12       N/A

$$




USA.gov is the U.S. government's official web portal to all federal, state and local government web resources and services.